When you browse on this site, cookies collect data to enhance your experience and personalize the content and advertising you see.
Visit our Privacy Policy to learn more. By continuing to use the site, you agree to this use of cookies and data.
  • In United Kingdom
  • List of Countries
  • For 7 days
  • Water Temperature
  • Weather Map
  • Weather Widgets
  • user-avatar
    Login

    Hourly Weather Hobart

    Today, 5 December, Thursday

    Time Temperature Precipitation Wind Pressure Humidity
    00:00 +8°C° 0 mm 4 mps 735 mmHg 77%
    01:00 +8°C° 0 mm 4 mps 734 mmHg 79%
    02:00 +8°C° 0 mm 4 mps 734 mmHg 80%
    03:00 +8°C° 0 mm 4 mps 734 mmHg 81%
    04:00 +9°C° 0 mm 2 mps 733 mmHg 84%
    05:00 +9°C° 0.1 mm 3 mps 733 mmHg 82%
    06:00 +10°C° 0.1 mm 3 mps 732 mmHg 81%
    07:00 +10°C° 0.1 mm 4 mps 732 mmHg 80%
    08:00 +11°C° 0.1 mm 4 mps 732 mmHg 79%
    09:00 +10°C° 0.1 mm 5 mps 732 mmHg 77%
    10:00 +12°C° 0 mm 5 mps 732 mmHg 76%
    11:00 +11°C° 0.1 mm 6 mps 732 mmHg 72%
    12:00 +13°C° 0.1 mm 6 mps 732 mmHg 67%
    13:00 +13°C° 0.1 mm 6 mps 732 mmHg 63%
    14:00 +13°C° 0.1 mm 6 mps 732 mmHg 65%
    15:00 +11°C° 0.1 mm 6 mps 732 mmHg 68%
    16:00 +12°C° 0 mm 4 mps 732 mmHg 70%
    17:00 +11°C° 0.2 mm 4 mps 732 mmHg 74%
    18:00 +11°C° 0.2 mm 4 mps 733 mmHg 79%
    19:00 +10°C° 0.2 mm 4 mps 733 mmHg 83%
    20:00 +8°C° 0.1 mm 4 mps 733 mmHg 84%
    21:00 +8°C° 0.1 mm 4 mps 734 mmHg 85%
    22:00 +7°C° 0 mm 5 mps 734 mmHg 88%
    23:00 +7°C° 0.1 mm 5 mps 733 mmHg 86%

    Tomorrow, 6 December, Friday

    Time Temperature Precipitation Wind Pressure Humidity
    00:00 +8°C° 0.1 mm 6 mps 733 mmHg 84%
    01:00 +8°C° 0.1 mm 6 mps 733 mmHg 82%
    02:00 +8°C° 0.1 mm 6 mps 733 mmHg 82%
    03:00 +8°C° 0.1 mm 6 mps 733 mmHg 82%
    04:00 +8°C° 0.1 mm 6 mps 732 mmHg 82%
    05:00 +8°C° 0.1 mm 7 mps 733 mmHg 81%
    06:00 +8°C° 0.1 mm 7 mps 733 mmHg 80%
    07:00 +8°C° 0.1 mm 7 mps 733 mmHg 79%
    08:00 +8°C° 0.4 mm 7 mps 733 mmHg 82%
    09:00 +7°C° 0.4 mm 6 mps 733 mmHg 84%
    10:00 +7°C° 0.4 mm 6 mps 733 mmHg 87%
    11:00 +7°C° 0.4 mm 6 mps 734 mmHg 87%
    12:00 +7°C° 0.4 mm 6 mps 734 mmHg 88%
    13:00 +7°C° 0.4 mm 6 mps 734 mmHg 88%
    14:00 +7°C° 0.6 mm 6 mps 734 mmHg 89%
    15:00 +7°C° 0.6 mm 6 mps 735 mmHg 90%
    16:00 +5°C° 0.6 mm 6 mps 735 mmHg 91%
    17:00 +5°C° 0.1 mm 6 mps 736 mmHg 87%
    18:00 +5°C° 0.1 mm 6 mps 737 mmHg 82%
    19:00 +7°C° 0.1 mm 6 mps 737 mmHg 78%
    20:00 +6°C° 0 mm 5 mps 738 mmHg 78%
    21:00 +6°C° 0 mm 5 mps 738 mmHg 79%
    22:00 +5°C° 0 mm 5 mps 739 mmHg 79%
    23:00 +6°C° 0 mm 5 mps 739 mmHg 78%

    Day after tomorrow, 7 December, Saturday

    Time Temperature Precipitation Wind Pressure Humidity
    00:00 +6°C° 0 mm 5 mps 739 mmHg 77%
    01:00 +6°C° 0 mm 5 mps 738 mmHg 76%
    02:00 +5°C° 0 mm 6 mps 739 mmHg 77%
    03:00 +5°C° 0 mm 6 mps 739 mmHg 79%
    04:00 +5°C° 0 mm 6 mps 739 mmHg 81%
    05:00 +7°C° 0.2 mm 6 mps 739 mmHg 82%
    06:00 +8°C° 0.2 mm 6 mps 739 mmHg 83%
    07:00 +9°C° 0.2 mm 6 mps 739 mmHg 83%
    08:00 +9°C° 0.4 mm 5 mps 740 mmHg 85%
    09:00 +9°C° 0.4 mm 5 mps 740 mmHg 87%
    10:00 +10°C° 0.4 mm 5 mps 740 mmHg 88%
    11:00 +10°C° 0.5 mm 5 mps 740 mmHg 86%
    12:00 +12°C° 0.5 mm 5 mps 741 mmHg 84%
    13:00 +11°C° 0.5 mm 6 mps 741 mmHg 82%
    14:00 +11°C° 0.2 mm 6 mps 741 mmHg 81%
    15:00 +12°C° 0.2 mm 5 mps 742 mmHg 81%
    16:00 +10°C° 0.2 mm 5 mps 742 mmHg 80%
    17:00 +10°C° 0 mm 5 mps 743 mmHg 80%
    18:00 +11°C° 0 mm 4 mps 743 mmHg 79%
    19:00 +11°C° 0 mm 4 mps 744 mmHg 78%
    20:00 +11°C° 0 mm 3 mps 745 mmHg 81%
    21:00 +10°C° 0 mm 3 mps 745 mmHg 85%
    22:00 +9°C° 0 mm 3 mps 746 mmHg 88%
    23:00 +9°C° 0 mm 3 mps 746 mmHg 87%

    8 December, Sunday

    Time Temperature Precipitation Wind Pressure Humidity
    00:00 +9°C° 0 mm 3 mps 746 mmHg 86%
    01:00 +10°C° 0 mm 3 mps 746 mmHg 86%
    02:00 +9°C° 0 mm 2 mps 747 mmHg 87%
    03:00 +9°C° 0 mm 2 mps 747 mmHg 88%
    04:00 +9°C° 0 mm 2 mps 748 mmHg 89%
    05:00 +10°C° 0 mm 2 mps 748 mmHg 82%
    06:00 +12°C° 0 mm 2 mps 749 mmHg 76%
    07:00 +13°C° 0 mm 2 mps 749 mmHg 69%
    08:00 +15°C° 0 mm 2 mps 750 mmHg 64%
    09:00 +16°C° 0 mm 2 mps 750 mmHg 59%
    10:00 +17°C° 0 mm 2 mps 750 mmHg 53%
    11:00 +18°C° 0 mm 2 mps 750 mmHg 52%
    12:00 +19°C° 0 mm 3 mps 750 mmHg 51%
    13:00 +20°C° 0 mm 3 mps 750 mmHg 50%
    14:00 +19°C° 0 mm 3 mps 750 mmHg 52%
    15:00 +19°C° 0 mm 3 mps 750 mmHg 54%
    16:00 +19°C° 0 mm 2 mps 750 mmHg 55%
    17:00 +17°C° 0 mm 2 mps 750 mmHg 63%
    18:00 +16°C° 0 mm 2 mps 751 mmHg 70%
    19:00 +14°C° 0 mm 2 mps 751 mmHg 77%
    20:00 +13°C° 0 mm 2 mps 751 mmHg 83%
    21:00 +10°C° 0 mm 2 mps 751 mmHg 89%
    22:00 +10°C° 0 mm 1 mps 751 mmHg 95%
    23:00 +9°C° 0 mm 2 mps 751 mmHg 95%

    9 December, Monday

    Time Temperature Precipitation Wind Pressure Humidity
    00:00 +9°C° 0 mm 2 mps 750 mmHg 95%
    01:00 +9°C° 0 mm 2 mps 750 mmHg 94%
    02:00 +9°C° 0 mm 2 mps 750 mmHg 93%
    03:00 +10°C° 0 mm 2 mps 749 mmHg 91%
    04:00 +10°C° 0 mm 2 mps 749 mmHg 89%
    05:00 +13°C° 0 mm 1 mps 749 mmHg 83%
    06:00 +14°C° 0 mm 1 mps 749 mmHg 78%
    07:00 +14°C° 0 mm 0 mps 750 mmHg 73%
    08:00 +18°C° 0 mm 1 mps 750 mmHg 68%
    09:00 +19°C° 0 mm 1 mps 750 mmHg 63%
    10:00 +20°C° 0 mm 1 mps 750 mmHg 59%
    11:00 +21°C° 0 mm 2 mps 749 mmHg 53%
    12:00 +22°C° 0 mm 3 mps 748 mmHg 48%
    13:00 +25°C° 0 mm 3 mps 747 mmHg 43%
    14:00 +25°C° 0 mm 4 mps 746 mmHg 44%
    15:00 +25°C° 0 mm 4 mps 746 mmHg 44%
    16:00 +25°C° 0 mm 4 mps 745 mmHg 44%
    17:00 +24°C° 0 mm 3 mps 744 mmHg 49%
    18:00 +22°C° 0 mm 3 mps 744 mmHg 55%
    19:00 +20°C° 0 mm 3 mps 744 mmHg 60%
    20:00 +19°C° 0 mm 3 mps 743 mmHg 63%
    21:00 +18°C° 0 mm 3 mps 743 mmHg 67%
    22:00 +16°C° 0 mm 3 mps 743 mmHg 70%
    23:00 +16°C° 0 mm 2 mps 742 mmHg 71%

    10 December, Tuesday

    Time Temperature Precipitation Wind Pressure Humidity
    00:00 +15°C° 0 mm 2 mps 742 mmHg 71%
    01:00 +15°C° 0 mm 2 mps 741 mmHg 71%
    02:00 +14°C° 0 mm 2 mps 741 mmHg 76%
    03:00 +13°C° 0 mm 1 mps 741 mmHg 80%
    04:00 +12°C° 0 mm 1 mps 741 mmHg 85%
    05:00 +14°C° 0 mm 1 mps 741 mmHg 79%
    06:00 +15°C° 0 mm 1 mps 742 mmHg 74%
    07:00 +18°C° 0 mm 1 mps 742 mmHg 69%
    08:00 +18°C° 0 mm 2 mps 743 mmHg 65%
    09:00 +19°C° 0 mm 3 mps 743 mmHg 61%
    10:00 +20°C° 0 mm 4 mps 744 mmHg 56%
    11:00 +20°C° 0 mm 5 mps 744 mmHg 55%
    12:00 +20°C° 0 mm 5 mps 744 mmHg 54%
    13:00 +20°C° 0 mm 5 mps 744 mmHg 52%
    14:00 +20°C° 0 mm 5 mps 744 mmHg 51%
    15:00 +19°C° 0 mm 5 mps 744 mmHg 49%
    16:00 +19°C° 0 mm 5 mps 744 mmHg 47%
    17:00 +17°C° 0 mm 4 mps 745 mmHg 52%
    18:00 +15°C° 0 mm 4 mps 745 mmHg 57%
    19:00 +13°C° 0 mm 3 mps 746 mmHg 62%
    20:00 +13°C° 0 mm 2 mps 746 mmHg 69%
    21:00 +10°C° 0 mm 2 mps 746 mmHg 75%
    22:00 +9°C° 0 mm 1 mps 746 mmHg 82%
    23:00 +9°C° 0 mm 1 mps 746 mmHg 81%
    Show more